sat.trackr.live / text

‹ back to catalog

STARLINK-4450

NORAD 53491 · 2022-099AC

PAYLOAD ACTIVE UNKNOWN

§ Identity

Operator
Country
US
Launch date
2022-08-12
Launch site
AFWTR
Launch vehicle
Mass (kg)
RCS (m²)

Purposes: comms

External: N2YO · Heavens-Above · Gunter

§ Orbital elements

Epoch: 2026-09-20T04:07:09.111072Z

Period
93.70 min
Inclination
97.4999°
Eccentricity
0.0001120
Mean motion
15.36901526 rev/d
Perigee alt
454.5 km
Apogee alt
456.0 km
Semi-major
6,833.4 km
B*
-1.5762e-3
RAAN
31.1199°
Arg perigee
70.7634°
Mean anomaly
289.3731°
Rev number
22,586

§ Raw data

STARLINK-44501 53491U 22099AC  26263.17163323 -.00056461  00000+0 -15762-2 0  99952 53491  97.4999  31.1199 0001120  70.7634 289.3731 15.36901526225860

JSON: /api/v1/satellites/53491 · /tle

For live sub-satellite position, see the globe view (requires WebGL).

§ Visibility from observer

Set your observer location to see the next 7 days of passes ≥ 10°. The values pass through the URL so the page stays shareable.

No JS? Fill the form by hand. The geolocation button needs JavaScript.